Total_Precipitation_Accumulation
0.01 0.01 0.01 0.01 0.00 0.00 0.00 0.00 0.00 0.00 0.00 0.00 0.00 0.00 0.00 0.00 0.00 0.00 0.00 0.00 0.00 0.00 0.00 0.00 0.00 0.00 0.00 0.00 0.00 0.00 0.00 0.00 0.00 0.00 0.00 0.00 0.00 0.00 0.00 0.00 0.01 0.01 0.01
0.01 0.01 0.01 0.01 0.00 0.00 0.00 0.00 0.00 0.00 0.00 0.00 0.00 0.00 0.00 0.00 0.00 0.00 0.00 0.00 0.00 0.00 0.00 0.00 0.00 0.00 0.00 0.00 0.00 0.00 0.00 0.00 0.00 0.00 0.00 0.00 0.00 0.00 0.00 0.00 0.00 0.00 0.01
0.01 0.01 0.01 0.01 0.00 0.00 0.00 0.00 0.00 0.00 0.00 0.00 0.00 0.00 0.00 0.00 0.00 0.00 0.00 0.00 0.00 0.00 0.00 0.00 0.00 0.00 0.00 0.00 0.00 0.00 0.00 0.00 0.00 0.00 0.00 0.00 0.00 0.00 0.00 0.00 0.00 0.00 0.00
0.03 0.06 0.03 0.01 0.00 0.00 0.00 0.00 0.00 0.00 0.00 0.00 0.00 0.00 0.00 0.00 0.00 0.00 0.00 0.00 0.00 0.00 0.00 0.00 0.00 0.00 0.00 0.00 0.00 0.00 0.00 0.00 0.00 0.00 0.00 0.00 0.00 0.00 0.00 0.00 0.00 0.00 0.00
0.05 0.06 0.10 0.06 0.06 0.01 0.00 0.00 0.00 0.00 0.00 0.00 0.00 0.00 0.00 0.00 0.00 0.00 0.00 0.00 0.00 0.00 0.00 0.00 0.00 0.00 0.00 0.00 0.00 0.00 0.00 0.00 0.00 0.00 0.00 0.00 0.00 0.00 0.00 0.00 0.00 0.00 0.00
0.12 0.07 0.05 0.06 0.08 0.06 0.02 0.01 0.00 0.00 0.00 0.00 0.00 0.00 0.00 0.00 0.00 0.00 0.00 0.00 0.00 0.00 0.00 0.00 0.00 0.00 0.00 0.00 0.00 0.00 0.00 0.00 0.00 0.00 0.00 0.00 0.00 0.00 0.00 0.00 0.00 0.00 0.00
0.17 0.16 0.11 0.07 0.07 0.07 0.04 0.04 0.02 0.00 0.00 0.00 0.00 0.00 0.00 0.00 0.00 0.00 0.00 0.00 0.00 0.00 0.00 0.00 0.00 0.00 0.00 0.00 0.00 0.00 0.00 0.00 0.00 0.00 0.00 0.00 0.00 0.00 0.00 0.00 0.00 0.00 0.00
0.25 0.18 0.15 0.13 0.07 0.07 0.08 0.09 0.06 0.03 0.01 0.01 0.00 0.00 0.00 0.00 0.00 0.00 0.00 0.00 0.00 0.00 0.00 0.00 0.00 0.00 0.00 0.00 0.00 0.00 0.00 0.00 0.00 0.00 0.00 0.00 0.00 0.00 0.00 0.00 0.00 0.00 0.00
0.34 0.22 0.16 0.13 0.10 0.11 0.07 0.07 0.10 0.09 0.06 0.03 0.01 0.01 0.00 0.00 0.00 0.00 0.00 0.00 0.00 0.00 0.00 0.00 0.00 0.00 0.00 0.00 0.00 0.00 0.00 0.00 0.00 0.00 0.00 0.00 0.00 0.00 0.00 0.00 0.00 0.00 0.00
0.37 0.33 0.27 0.25 0.20 0.18 0.13 0.15 0.13 0.10 0.13 0.11 0.07 0.03 0.04 0.03 0.01 0.00 0.00 0.00 0.00 0.00 0.00 0.00 0.00 0.00 0.00 0.00 0.00 0.00 0.00 0.00 0.00 0.00 0.00 0.00 0.00 0.00 0.00 0.00 0.00 0.00 0.00
0.29 0.31 0.27 0.25 0.27 0.31 0.28 0.28 0.28 0.26 0.17 0.16 0.16 0.10 0.13 0.15 0.11 0.07 0.04 0.01 0.00 0.00 0.00 0.00 0.00 0.00 0.00 0.00 0.00 0.00 0.00 0.00 0.00 0.00 0.00 0.00 0.00 0.00 0.00 0.00 0.00 0.00 0.00
0.58 0.55 0.47 0.43 0.42 0.45 0.42 0.42 0.44 0.44 0.44 0.44 0.54 0.56 0.47 0.44 0.41 0.34 0.31 0.19 0.09 0.07 0.07 0.05 0.05 0.03 0.00 0.00 0.00 0.00 0.00 0.00 0.00 0.00 0.00 0.00 0.00 0.00 0.00 0.00 0.00 0.00 0.00
0.66 0.65 0.79 0.89 0.93 0.98 1.02 1.13 1.25 1.13 1.10 1.20 1.04 0.95 0.89 0.72 0.53 0.42 0.38 0.34 0.25 0.18 0.14 0.09 0.04 0.01 0.00 0.00 0.00 0.00 0.00 0.00 0.00 0.00 0.00 0.00 0.00 0.00 0.00 0.00 0.00 0.00 0.00
1.04 1.02 1.10 1.20 1.24 1.35 1.49 1.62 1.63 1.56 1.53 1.48 1.40 1.20 1.01 0.92 0.75 0.55 0.37 0.30 0.35 0.34 0.25 0.17 0.08 0.03 0.01 0.00 0.00 0.00 0.00 0.00 0.00 0.00 0.00 0.00 0.00 0.00 0.00 0.00 0.00 0.00 0.00
1.54 1.43 1.39 1.27 1.16 1.07 1.10 1.30 1.40 1.32 1.25 1.11 0.89 0.77 0.69 0.56 0.50 0.41 0.34 0.33 0.27 0.36 0.31 0.14 0.06 0.03 0.02 0.01 0.02 0.01 0.01 0.01 0.02 0.02 0.01 0.00 0.00 0.00 0.00 0.00 0.00 0.00 0.00
1.23 1.20 1.11 1.15 1.14 1.11 1.08 1.05 1.06 1.05 1.09 1.02 0.88 0.76 0.62 0.46 0.38 0.31 0.24 0.18 0.11 0.14 0.18 0.09 0.05 0.02 0.01 0.01 0.01 0.01 0.01 0.03 0.03 0.02 0.01 0.00 0.00 0.00 0.00 0.00 0.00 0.00 0.00
0.72 0.86 0.83 0.75 0.75 0.80 0.83 0.83 0.80 0.80 0.76 0.73 0.71 0.70 0.68 0.57 0.54 0.41 0.26 0.18 0.13 0.09 0.17 0.14 0.07 0.03 0.02 0.01 0.01 0.00 0.01 0.02 0.03 0.02 0.01 0.01 0.01 0.00 0.00 0.00 0.00 0.00 0.00
0.85 0.91 0.78 0.67 0.60 0.67 0.77 0.76 0.73 0.67 0.65 0.69 0.66 0.68 0.70 0.72 0.68 0.60 0.48 0.34 0.27 0.19 0.20 0.26 0.21 0.12 0.07 0.04 0.02 0.00 0.01 0.02 0.02 0.02 0.02 0.03 0.02 0.02 0.02 0.01 0.01 0.01 0.01
0.46 0.59 0.69 0.73 0.76 0.78 0.74 0.74 0.76 0.71 0.64 0.62 0.62 0.65 0.70 0.74 0.81 0.79 0.71 0.61 0.58 0.53 0.45 0.46 0.44 0.27 0.18 0.15 0.10 0.10 0.06 0.04 0.03 0.02 0.03 0.04 0.04 0.04 0.03 0.03 0.03 0.03 0.02
0.22 0.36 0.59 0.74 0.69 0.64 0.70 0.71 0.71 0.69 0.64 0.65 0.63 0.62 0.65 0.67 0.69 0.74 0.77 0.75 0.73 0.73 0.66 0.60 0.56 0.48 0.46 0.41 0.26 0.27 0.17 0.12 0.08 0.04 0.06 0.07 0.08 0.07 0.07 0.05 0.04 0.02 0.01
0.07 0.13 0.24 0.36 0.46 0.48 0.60 0.62 0.60 0.64 0.64 0.66 0.69 0.67 0.64 0.69 0.79 0.84 0.82 0.80 0.79 0.79 0.76 0.67 0.61 0.57 0.57 0.52 0.42 0.36 0.22 0.20 0.15 0.10 0.12 0.12 0.09 0.08 0.05 0.03 0.02 0.01 0.00
0.01 0.01 0.03 0.08 0.19 0.31 0.54 0.61 0.53 0.51 0.52 0.55 0.53 0.55 0.61 0.67 0.72 0.82 0.83 0.84 0.78 0.68 0.61 0.54 0.52 0.46 0.42 0.34 0.29 0.27 0.28 0.31 0.30 0.20 0.15 0.16 0.14 0.13 0.08 0.05 0.03 0.01 0.00
0.00 0.00 0.02 0.02 0.05 0.11 0.29 0.45 0.46 0.42 0.49 0.52 0.51 0.49 0.52 0.62 0.67 0.65 0.71 0.77 0.84 0.81 0.65 0.53 0.47 0.42 0.39 0.40 0.38 0.38 0.29 0.19 0.16 0.12 0.17 0.24 0.18 0.15 0.08 0.03 0.02 0.02 0.01
0.00 0.02 0.06 0.06 0.07 0.13 0.30 0.40 0.42 0.38 0.40 0.41 0.39 0.40 0.40 0.47 0.54 0.56 0.54 0.54 0.57 0.59 0.56 0.57 0.60 0.60 0.45 0.39 0.31 0.27 0.25 0.30 0.31 0.19 0.21 0.21 0.11 0.09 0.05 0.01 0.00 0.02 0.01
0.04 0.04 0.07 0.08 0.09 0.16 0.30 0.36 0.40 0.35 0.41 0.46 0.39 0.37 0.38 0.40 0.48 0.45 0.41 0.42 0.46 0.49 0.47 0.47 0.48 0.49 0.48 0.51 0.47 0.44 0.43 0.31 0.21 0.16 0.16 0.10 0.04 0.07 0.05 0.00 0.00 0.00 0.00
0.04 0.07 0.10 0.10 0.14 0.21 0.26 0.25 0.34 0.32 0.31 0.31 0.30 0.35 0.40 0.45 0.45 0.32 0.30 0.27 0.29 0.33 0.32 0.33 0.33 0.35 0.35 0.35 0.33 0.24 0.17 0.15 0.12 0.15 0.12 0.08 0.02 0.06 0.04 0.00 0.00 0.00 0.00